Preview of NWS' New Version of Forecast
This preview is not operational and should not be used for support decisions.

Regional Weather Roundup (RWR)

Issued by National Weather Service (NWS)

                            
000
ASUS44 KJAN 180110
RWRMS 

MISSISSIPPI HOURLY WEATHER ROUNDUP
NATIONAL WEATHER SERVICE JACKSON MS
800 PM CDT WED APR 17 2019

NOTE: "FAIR: INDICATES FEW OR NO CLOUDS BELOW 12,000 FEET WITH NO
SIGNIFICANT WEATHER AND/OR OBSTRUCTIONS TO VISIBILITY.

MSZ001>002-007>008-010>013-018>021-025>028-034>036-180200-
NORTHWEST MISSISSIPPI
  
CITY           SKY/WX    TMP DP  RH WIND       PRES   REMARKS
BATESVILLE     FAIR     N/A N/A N/A VRB3      29.86R                  
CLARKSDALE     CLEAR     70  68  94 CALM      29.86R                  
CLEVELAND      FAIR      70  64  79 S6        29.85R                  
GREENWOOD      FAIR      72  60  66 S10       29.86S                  
GREENVILLE     FAIR      72  62  71 S10       29.83F                  
OLIVE BRANCH   CLOUDY    66  61  82 CALM      29.85F                  
OXFORD         FAIR      68  55  64 S13       29.88F                  
TUNICA           N/A     64  63  94 S3        29.87R                  
WINONA         FAIR      70  60  71 SE7       29.88S                  
$$

MSZ003>006-009-014>017-022>024-029>033-037>039-180200-
NORTHEAST MISSISSIPPI
  
CITY           SKY/WX    TMP DP  RH WIND       PRES   REMARKS
ABERDEEN       FAIR      68  66  94 SE7       29.94F                  
COLUMBUS AFB   FAIR      68  59  73 SE8       29.93F                  
CORINTH        MOCLDY    68  55  64 CALM      29.90F                  
GOLDN TRIANGLE FAIR      70  60  70 SE13      29.93F                  
STARKVILLE     FAIR      68  61  77 SE10      29.93F                  
TUPELO         FAIR      70  58  65 SE14      29.90F                  
$$

MSZ040-058-180200-
CENTRAL MISSISSIPPI
  
CITY           SKY/WX    TMP DP  RH WIND       PRES   REMARKS
JACKSON INTL   FAIR      72  60  66 SE12      29.88F                  
JACKSON HAWKNS FAIR      73  64  73 SE15      29.88F                  
MADISON        FAIR      70  63  78 SE3       29.87F                  
MERIDIAN KEY   FAIR      71  61  70 SE5       29.96S                  
MERIDIAN NAS   MOCLDY    68  61  78 E7        29.96F                  
RAYMOND        FAIR      73  66  78 S12       29.87F                  
VICKSBURG VKS  CLEAR     73  64  73 SE5       29.86R                  
$$

MSZ059>079-180200-
SOUTH MISSISSIPPI
  
CITY           SKY/WX    TMP DP  RH WIND       PRES   REMARKS
HATTIESBURG    FAIR      70  61  73 S7        29.97S                  
LAUREL         CLEAR     72  61  69 SE7       29.95F                  
MCCOMB         FAIR      69  62  78 SE6       29.92S                  
NATCHEZ        FAIR      73  65  75 S14G23    29.85F                  
PINE BELT      FAIR      68  61  78 S5        29.97S                  
$$

MSZ080>082-180200-
COASTAL MISSISSIPPI
  
CITY           SKY/WX    TMP DP  RH WIND       PRES   REMARKS
BILOXI         FAIR      70  62  75 SE6       29.97F                  
PASCAGOULA     FAIR      67  61  81 CALM      29.98F                  
GULFPORT       FAIR      70  62  76 SE10      29.96F                  
$$

LAZ007>009-015>016-023>026-180200-
NORTHEAST LOUISIANA
  
CITY           SKY/WX    TMP DP  RH WIND       PRES   REMARKS
BASTROP        FAIR      72  63  73 CALM      29.84R                  
TALLULAH/VBURG FAIR      72  64  76 S8        29.86R                  
VIDALIA        FAIR      73  65  77 SE10      29.84F                  
$$